Key West Weather Center

Moon Phase Calendar



Online Cameras

 


      

Current Conditions in Key West
5/8/2021 2:49:04 AM

79°F
Feels Like 79
Clear
Humidity
61%
Pressure
30.03"
Wind
11.5 mph (NNW)
Dew Point
64°F
UV Index
0/10 (Low)
Visibility
6 mi

Hourly Forecast

Date & Time Sat, May 8
2:00 AM
Sat, May 8
3:00 AM
Sat, May 8
4:00 AM
Sat, May 8
5:00 AM
Sat, May 8
6:00 AM
Sat, May 8
7:00 AM
Sat, May 8
8:00 AM
Sat, May 8
9:00 AM
Sat, May 8
10:00 AM
Sat, May 8
11:00 AM
Sat, May 8
12:00 PM
Sat, May 8
1:00 PM
Sat, May 8
2:00 PM
Sat, May 8
3:00 PM
Sat, May 8
4:00 PM
Sat, May 8
5:00 PM
Sat, May 8
6:00 PM
Sat, May 8
7:00 PM
Sat, May 8
8:00 PM
Sat, May 8
9:00 PM
Sat, May 8
10:00 PM
Sat, May 8
11:00 PM
Sun, May 9
12:00 AM
Sun, May 9
1:00 AM
Sun, May 9
2:00 AM
Sun, May 9
3:00 AM
Sun, May 9
4:00 AM
Sun, May 9
5:00 AM
Sun, May 9
6:00 AM
Sun, May 9
7:00 AM
Sun, May 9
8:00 AM
Sun, May 9
9:00 AM
Sun, May 9
10:00 AM
Sun, May 9
11:00 AM
Sun, May 9
12:00 PM
Sun, May 9
1:00 PM
Sun, May 9
2:00 PM
Sun, May 9
3:00 PM
Sun, May 9
4:00 PM
Sun, May 9
5:00 PM
Sun, May 9
6:00 PM
Sun, May 9
7:00 PM
Sun, May 9
8:00 PM
Sun, May 9
9:00 PM
Sun, May 9
10:00 PM
Sun, May 9
11:00 PM
Mon, May 10
12:00 AM
Mon, May 10
1:00 AM
Condition
Clear

Clear

Clear

Clear

Clear

Clear

Clear

Clear

Clear

Clear

Clouds

Clouds

Clouds

Clear

Clear

Clear

Clear

Clear

Clear

Clouds

Clear

Clear

Clear

Clouds

Clouds

Clouds

Clouds

Clouds

Clouds

Clouds

Clouds

Clear

Clear

Clear

Clear

Clear

Clear

Clear

Clear

Clear

Clear

Clear

Clear

Clear

Clear

Clear

Clear

Clear
Temperature 79°F79°F79°F79°F78°F78°F78°F79°F79°F79°F79°F80°F81°F81°F81°F81°F81°F80°F80°F80°F80°F80°F81°F81°F81°F81°F81°F81°F81°F80°F80°F80°F80°F80°F81°F81°F81°F81°F81°F81°F81°F81°F81°F81°F82°F82°F82°F81°F
Feels Like 79°F79°F79°F79°F78°F78°F79°F79°F79°F79°F79°F80°F84°F84°F84°F84°F84°F84°F84°F84°F84°F84°F84°F84°F84°F84°F84°F84°F84°F83°F83°F83°F83°F84°F84°F84°F85°F85°F85°F85°F85°F85°F86°F86°F86°F86°F86°F86°F
Cloudiness 1%1%1%1%0%0%0%0%2%8%30%40%36%10%10%8%7%6%7%14%10%8%7%17%31%100%100%100%90%72%60%0%0%0%0%0%0%1%1%1%0%0%0%0%0%0%1%2%
Visibility 6 mi6 mi6 mi6 mi6 mi6 mi6 mi6 mi6 mi6 mi6 mi6 mi6 mi6 mi6 mi6 mi6 mi6 mi6 mi6 mi6 mi6 mi6 mi6 mi6 mi6 mi6 mi6 mi6 mi6 mi6 mi6 mi6 mi6 mi6 mi6 mi6 mi6 mi6 mi6 mi6 mi6 mi6 mi6 mi6 mi6 mi6 mi6 mi
Precipitation 0%0%0%0%0%0%0%8%11%11%4%4%4%1%1%1%1%1%0%0%0%0%1%1%1%18%21%22%19%15%15%15%16%12%11%10%11%10%8%1%0%0%3%11%10%10%7%7%
Humidity 59%61%59%59%62%63%61%62%63%71%74%73%70%69%70%69%70%73%72%72%71%71%70%67%66%66%66%67%69%70%72%73%72%72%72%72%72%72%72%72%72%73%73%73%73%72%73%73%
Dew Point 64°F64°F63°F63°F64°F64°F64°F65°F66°F69°F71°F71°F70°F70°F70°F70°F71°F71°F71°F71°F71°F71°F70°F69°F69°F69°F69°F69°F70°F70°F70°F71°F71°F71°F71°F71°F71°F71°F71°F72°F72°F72°F72°F72°F72°F72°F72°F72°F
Pressure 30.03"30.03"30.03"30.03"30"30"30.03"30.03"30.06"30.06"30.06"30.06"30.03"30.03"30"30"30"30.03"30.03"30.03"30.06"30.06"30.06"30.06"30.06"30.03"30.03"30.03"30.03"30.06"30.06"30.09"30.09"30.09"30.09"30.09"30.06"30.06"30.06"30.03"30.03"30.03"30.03"30.06"30.06"30.06"30.06"30.03"
Wind Speed 15.2 mph15.6 mph16.2 mph16.2 mph13.9 mph10.1 mph6.8 mph6.3 mph7.6 mph10.2 mph11.4 mph10.2 mph9.2 mph8.9 mph11.3 mph13.5 mph15 mph18.3 mph18.7 mph19.3 mph19.3 mph19.3 mph19.1 mph18.8 mph18.2 mph17.6 mph16.4 mph16.9 mph19.6 mph19.3 mph19.4 mph19.1 mph18.5 mph18.3 mph18.1 mph18.1 mph17.6 mph17 mph16.9 mph17.4 mph17.9 mph18.9 mph19.9 mph20.2 mph20.1 mph19.2 mph19.7 mph21 mph
Wind
Direction
353°
N
356°
N

N

N

N

N
19°
NNE
16°
NNE
32°
NNE
42°
NE
42°
NE
39°
NE
49°
NE
76°
ENE
97°
E
95°
E
86°
E
87°
E
85°
E
87°
E
91°
E
95°
E
96°
E
100°
E
102°
ESE
101°
E
99°
E
102°
ESE
109°
ESE
111°
ESE
110°
ESE
111°
ESE
113°
ESE
114°
ESE
116°
ESE
116°
ESE
116°
ESE
116°
ESE
113°
ESE
109°
ESE
102°
ESE
96°
E
94°
E
95°
E
101°
E
109°
ESE
117°
ESE
120°
ESE

Daily Forecast

Date High Low Precip. Humidity
Today
May 8

Clouds
81 °F
78 °F
11%
73%
Sunday
May 9

Clear
82 °F
80 °F
22%
72%
Monday
May 10

Clear
82 °F
81 °F
10%
71%
Tuesday
May 11

Rain
83 °F
82 °F
20%
72%
Wednesday
May 12

Rain
82 °F
81 °F
64%
74%
Thursday
May 13

Rain
82 °F
82 °F
88%
74%
Friday
May 14

Rain
83 °F
80 °F
100%
71%
Saturday
May 15

Rain
82 °F
80 °F
100%
71%
Sunday
May 16

Rain
82 °F
80 °F
100%
74%
Monday
May 17

Rain
83 °F
81 °F
100%
73%
Tuesday
May 18

Rain
83 °F
82 °F
89%
74%
Wednesday
May 19

Rain
82 °F
81 °F
67%
73%
Thursday
May 20

Rain
83 °F
82 °F
51%
69%
Friday
May 21

Rain
82 °F
82 °F
48%
68%
Saturday
May 22

Rain
83 °F
82 °F
34%
71%
Sunday
May 23

Rain
83 °F
82 °F
25%
72%

Temperature 8-14 Day Outlook



Precipitation 8-14 Day Outlook




Quick Links
Key West News
Key West Photos
Key West Videos




About Us
Contact Us
Site Map
Search Site
Advertise With Us
   
Key-West.CoastalTown.com
THE KEY WEST WEBSITE

Copyright 2021, Coastal Town
Privacy    |    Legal